This is the latest recevied weather packets stored in our database for station/object DK4MDA-13. If no packets are shown the sender has not sent any weather packets the latest 10 day(s).
| Time | Temp. | Humidity | Pressure | Rain* | Wind** | Luminosity | Snow |
|---|---|---|---|---|---|---|---|
| 1777929431 | 14.44° C | 88% | 1012.5 hPa | 2.79 mm | - | - | - |
| 1777929131 | 14.44° C | 88% | 1012.9 hPa | 2.29 mm | - | - | - |
| 1777928831 | 15° C | 87% | 1012.9 hPa | 1.52 mm | - | - | - |
| 1777928531 | 15° C | 86% | 1012.7 hPa | 1.27 mm | - | - | - |
| 1777928231 | 15° C | 85% | 1012.5 hPa | 1.02 mm | - | - | - |
| 1777927931 | 15.56° C | 82% | 1012.5 hPa | 0.76 mm | - | - | - |
| 1777927631 | 16.11° C | 79% | 1012.4 hPa | 0.76 mm | - | - | - |
| 1777927331 | 17.22° C | 76% | 1012.2 hPa | 0.76 mm | - | - | - |
| 1777927031 | 18.33° C | 69% | 1012.3 hPa | 0 mm | - | - | - |
| 1777926731 | 18.33° C | 66% | 1012.2 hPa | 0 mm | - | - | - |
| 1777926431 | 18.33° C | 66% | 1012 hPa | 0 mm | - | - | - |
| 1777926131 | 18.33° C | 66% | 1012 hPa | 0 mm | - | - | - |
| 1777925831 | 17.78° C | 66% | 1012 hPa | 0 mm | - | - | - |
| 1777925531 | 17.78° C | 66% | 1011.9 hPa | 0 mm | - | - | - |
| 1777925233 | 17.78° C | 67% | 1011.9 hPa | 0 mm | - | - | - |
| 1777924931 | 17.78° C | 66% | 1012 hPa | 0 mm | - | - | - |
| 1777924631 | 17.78° C | 67% | 1012 hPa | 0 mm | - | - | - |
| 1777924331 | 17.78° C | 66% | 1012 hPa | 0 mm | - | - | - |
| 1777924033 | 17.78° C | 66% | 1011.9 hPa | 0 mm | - | - | - |
| 1777923731 | 18.33° C | 66% | 1012 hPa | 0 mm | - | - | - |
| 1777923431 | 18.33° C | 66% | 1011.9 hPa | 0 mm | - | - | - |
| 1777923131 | 18.33° C | 65% | 1011.9 hPa | 0 mm | - | - | - |
| 1777922531 | 18.89° C | 64% | 1011.9 hPa | 0 mm | - | - | - |
| 1777922231 | 18.89° C | 64% | 1011.8 hPa | 0 mm | - | - | - |
| 1777921931 | 18.89° C | 64% | 1011.7 hPa | 0 mm | - | - | - |
* Rain latest hour (hover to see other rain measurements)
** Current wind speed in m/s (hover to see current wind gust speed)